| time (UTC) | temp C | wind direction | speed KPH | gust KPH | rain 1hr cm | rain 24hr cm | rain mn cm | humidity % | barometer mb |
| 20260505003019 | 13 | 210 | 3.2 | 9.7 | 0.00 | 0.00 | 0.00 | 61 | 1010.0 |
| 20260505002019 | 14 | 221 | 3.2 | 6.4 | 0.00 | 0.00 | 0.00 | 60 | 1009.8 |
| 20260505001019 | 14 | 237 | 3.2 | 6.4 | 0.00 | 0.00 | 0.00 | 58 | 1009.6 |
| 20260505000019 | 15 | 219 | 3.2 | 8.0 | 0.00 | 0.00 | 0.00 | 56 | 1009.5 |
| 20260504235016 | 15 | 240 | 3.2 | 11.3 | 0.00 | 0.00 | 0.00 | 55 | 1009.4 |
| 20260504234017 | 15 | 269 | 3.2 | 8.0 | 0.00 | 0.00 | 0.00 | 54 | 1009.3 |
| 20260504233019 | 16 | 212 | 3.2 | 9.7 | 0.00 | 0.00 | 0.00 | 52 | 1009.2 |
| 20260504232020 | 16 | 212 | 4.8 | 8.0 | 0.00 | 0.00 | 0.00 | 51 | 1009.1 |
| 20260504231019 | 16 | 210 | 3.2 | 8.0 | 0.00 | 0.00 | 0.00 | 50 | 1009.0 |
| 20260504230018 | 17 | 214 | 4.8 | 12.9 | 0.00 | 0.00 | 0.00 | 50 | 1008.8 |
| 20260504225037 | 17 | 217 | 3.2 | 8.0 | 0.00 | 0.00 | 0.00 | 50 | 1008.7 |
| 20260504224017 | 17 | 224 | 3.2 | 9.7 | 0.00 | 0.00 | 0.00 | 49 | 1008.7 |
| 20260504223017 | 17 | 215 | 4.8 | 11.3 | 0.00 | 0.00 | 0.00 | 49 | 1008.6 |
| 20260504222017 | 18 | 213 | 6.4 | 14.5 | 0.00 | 0.00 | 0.00 | 47 | 1008.6 |
| 20260504221021 | 19 | 210 | 3.2 | 8.0 | 0.00 | 0.00 | 0.00 | 46 | 1008.5 |
| 20260504220018 | 19 | 210 | 4.8 | 11.3 | 0.00 | 0.00 | 0.00 | 45 | 1008.5 |
| 20260504215017 | 20 | 219 | 3.2 | 9.7 | 0.00 | 0.00 | 0.00 | 43 | 1008.3 |
| 20260504214059 | 20 | 211 | 3.2 | 8.0 | 0.00 | 0.00 | 0.00 | 44 | 1008.3 |
| 20260504213018 | 20 | 208 | 4.8 | 9.7 | 0.00 | 0.00 | 0.00 | 43 | 1008.4 |
| 20260504212019 | 20 | 218 | 3.2 | 8.0 | 0.00 | 0.00 | 0.00 | 42 | 1008.3 |
| 20260504211016 | 20 | 223 | 4.8 | 11.3 | 0.00 | 0.00 | 0.00 | 42 | 1008.2 |
| 20260504210019 | 20 | 221 | 4.8 | 11.3 | 0.00 | 0.00 | 0.00 | 41 | 1008.2 |
| 20260504205040 | 21 | 215 | 6.4 | 12.9 | 0.00 | 0.00 | 0.00 | 40 | 1008.2 |
| 20260504204039 | 21 | 219 | 3.2 | 9.7 | 0.00 | 0.00 | 0.00 | 40 | 1008.2 |
| 20260504203020 | 21 | 277 | 4.8 | 14.5 | 0.00 | 0.00 | 0.00 | 38 | 1008.1 |
| 20260504202017 | 21 | 234 | 3.2 | 14.5 | 0.00 | 0.00 | 0.00 | 38 | 1008.1 |
| 20260504201017 | 21 | 226 | 4.8 | 12.9 | 0.00 | 0.00 | 0.00 | 37 | 1008.1 |
| 20260504200017 | 21 | 263 | 3.2 | 9.7 | 0.00 | 0.00 | 0.00 | 37 | 1008.2 |
| 20260504195100 | 21 | 205 | 3.2 | 9.7 | 0.00 | 0.00 | 0.00 | 38 | 1008.1 |
| 20260504194017 | 20 | 225 | 4.8 | 12.9 | 0.00 | 0.00 | 0.00 | 38 | 1008.2 |
| 20260504193037 | 21 | 227 | 4.8 | 11.3 | 0.00 | 0.00 | 0.00 | 37 | 1008.2 |
| 20260504192018 | 20 | 232 | 4.8 | 12.9 | 0.00 | 0.00 | 0.00 | 37 | 1008.2 |
| 20260504191018 | 20 | 224 | 3.2 | 12.9 | 0.00 | 0.00 | 0.00 | 37 | 1008.3 |
| 20260504190019 | 20 | 211 | 4.8 | 11.3 | 0.00 | 0.00 | 0.00 | 37 | 1008.3 |
| 20260504185018 | 20 | 221 | 4.8 | 16.1 | 0.00 | 0.00 | 0.00 | 38 | 1008.3 |
| 20260504184019 | 20 | 229 | 4.8 | 11.3 | 0.00 | 0.00 | 0.00 | 37 | 1008.6 |
| 20260504183038 | 20 | 214 | 4.8 | 14.5 | 0.00 | 0.00 | 0.00 | 37 | 1008.6 |
| 20260504182019 | 20 | 213 | 4.8 | 12.9 | 0.00 | 0.00 | 0.00 | 38 | 1008.7 |
| 20260504181019 | 20 | 255 | 4.8 | 11.3 | 0.00 | 0.00 | 0.00 | 37 | 1008.8 |
| 20260504180019 | 20 | 241 | 4.8 | 12.9 | 0.00 | 0.00 | 0.00 | 37 | 1008.9 |
| 20260504175020 | 20 | 238 | 4.8 | 12.9 | 0.00 | 0.00 | 0.00 | 37 | 1009.0 |
| 20260504174036 | 20 | 265 | 6.4 | 14.5 | 0.00 | 0.00 | 0.00 | 36 | 1009.1 |
| 20260504173017 | 19 | 227 | 4.8 | 12.9 | 0.00 | 0.00 | 0.00 | 38 | 1008.9 |
| 20260504172040 | 19 | 235 | 6.4 | 12.9 | 0.00 | 0.00 | 0.00 | 37 | 1009.1 |
| 20260504171020 | 19 | 209 | 4.8 | 12.9 | 0.00 | 0.00 | 0.00 | 38 | 1009.0 |
| 20260504151019 | 17 | 228 | 4.8 | 11.3 | 0.00 | 0.00 | 0.00 | 41 | 1010.4 |
| 20260504141022 | 15 | 208 | 4.8 | 8.0 | 0.00 | 0.00 | 0.00 | 46 | 1011.0 |
| 20260504081028 | 3 | 357 | 0.0 | 1.6 | 0.00 | 0.00 | 0.00 | 80 | 1011.0 |
| 20260504050020 | 2 | 278 | 0.0 | 3.2 | 0.00 | 0.00 | 0.00 | 80 | 1011.1 |
| 20260504045016 | 2 | 233 | 0.0 | 1.6 | 0.00 | 0.00 | 0.00 | 80 | 1011.3 |
| 20260504044037 | 2 | 248 | 0.0 | 3.2 | 0.00 | 0.00 | 0.00 | 79 | 1011.2 |
| 20260504043017 | 2 | 322 | 0.0 | 3.2 | 0.00 | 0.00 | 0.00 | 79 | 1011.1 |
| 20260504042018 | 2 | 305 | 0.0 | 3.2 | 0.00 | 0.00 | 0.00 | 79 | 1011.1 |
| 20260504041021 | 2 | 235 | 0.0 | 3.2 | 0.00 | 0.00 | 0.00 | 79 | 1011.0 |
| 20260504040018 | 2 | 270 | 0.0 | 1.6 | 0.00 | 0.00 | 0.00 | 80 | 1010.9 |
| 20260504035038 | 2 | 333 | 1.6 | 3.2 | 0.00 | 0.00 | 0.00 | 80 | 1010.9 |
| 20260504034018 | 2 | 312 | 0.0 | 3.2 | 0.00 | 0.00 | 0.00 | 79 | 1010.9 |
| 20260504033018 | 2 | 340 | 1.6 | 4.8 | 0.00 | 0.00 | 0.00 | 78 | 1010.9 |
| 20260504032036 | 2 | 310 | 0.0 | 3.2 | 0.00 | 0.00 | 0.00 | 78 | 1010.8 |
| 20260504031016 | 2 | 336 | 1.6 | 3.2 | 0.00 | 0.00 | 0.00 | 79 | 1010.7 |
| 20260504030018 | 2 | 335 | 1.6 | 3.2 | 0.00 | 0.00 | 0.00 | 79 | 1010.6 |
| 20260504025018 | 2 | 271 | 0.0 | 1.6 | 0.00 | 0.00 | 0.00 | 80 | 1010.6 |
| 20260504024019 | 2 | 318 | 0.0 | 3.2 | 0.00 | 0.00 | 0.00 | 79 | 1010.5 |
| 20260504023017 | 2 | 303 | 0.0 | 3.2 | 0.00 | 0.00 | 0.00 | 78 | 1010.5 |
| 20260504022017 | 2 | 257 | 0.0 | 1.6 | 0.00 | 0.00 | 0.00 | 76 | 1010.4 |
| 20260504021018 | 3 | 340 | 0.0 | 3.2 | 0.00 | 0.00 | 0.00 | 75 | 1010.4 |
| 20260504020017 | 3 | 330 | 0.0 | 3.2 | 0.00 | 0.00 | 0.00 | 73 | 1010.4 |
| 20260504015037 | 3 | 325 | 0.0 | 3.2 | 0.00 | 0.00 | 0.00 | 72 | 1010.3 |
| 20260504014018 | 3 | 306 | 0.0 | 1.6 | 0.00 | 0.00 | 0.00 | 71 | 1010.2 |
| 20260504013018 | 4 | 336 | 0.0 | 3.2 | 0.00 | 0.00 | 0.00 | 70 | 1010.2 |
| 20260504012017 | 5 | 311 | 0.0 | 3.2 | 0.00 | 0.00 | 0.00 | 68 | 1010.1 |
| 20260504011017 | 5 | 287 | 0.0 | 1.6 | 0.00 | 0.00 | 0.00 | 64 | 1009.9 |
| 20260504010017 | 5 | 324 | 0.0 | 1.6 | 0.00 | 0.00 | 0.00 | 62 | 1009.7 |
| 20260504005018 | 6 | 324 | 0.0 | 3.2 | 0.00 | 0.00 | 0.00 | 60 | 1009.6 |
| 20260504004018 | 6 | 338 | 0.0 | 3.2 | 0.00 | 0.00 | 0.00 | 60 | 1009.5 |